Terminal Aerodrome Forecast
Issued by NWS

Home | Current Version | Previous Version | Text Only | Print | Product List | Glossary On
Versions: 1 2 3 4 5 6 7 8 9 10 11 12 13 14 15 16 17 18 19 20 21 22 23 24 25 26 27 28 29 30 31 32
000
FTUS44 KLIX 260617 AAA
TAFHUM
TAF AMD
KHUM 260617Z 2606/2706 00000KT P6SM SKC
     FM261500 16004KT P6SM SCT030 OVC090
     FM261600 13005KT P6SM VCSH SCT025 BKN090
      TEMPO 2617/2621 VRB15G25KT 1SM TSRA BKN025CB BKN090
     FM262200 24009KT P6SM BKN040=

USA.gov is the U.S. government's official web portal to all federal, state and local government web resources and services.